Home   Weather   Greven   Past weeks
Flag for Germany

Past Weather in Greven, North Rhine-Westphalia, Germany — Yesterday and Last 2 Weeks

Now
68 °F

Passing clouds.


Feels Like: 68 °F
Forecast: 58 / 53 °F
Wind: 12 mph from Southwest

Location: Muenster / Osnabrueck

Current Time: Sep 15, 2019 at 12:30:22 pm

Latest Report: Sep 15, 2019 at 11:50 am


Visibility: N/A

Pressure: 30.18 "Hg

Humidity: 46%

Dew Point: 46 °F

Location of GrevenLocation

Past Weather in Greven — Graph

°F

Greven Temperature Yesterday

Maximum temperature yesterday: 68 °F (at 2:20 pm)
Minimum temperature yesterday: 41 °F (at 7:20 am)
Average temperature yesterday: 55 °F

High & Low Weather Summary for the Past Weeks

 TemperatureHumidityPressure
High90 °F (Aug 31, 4:50 pm)100% (Sep 6, 5:50 am)30.57 "Hg (Sep 6, 5:50 am)
Low41 °F (Sep 10, 5:50 am)33% (Aug 31, 2:50 pm)29.74 "Hg (Aug 31, 8:20 pm)
Average59 °F73%30.14 "Hg
* Reported Aug 31 11:20 am — Sep 15 11:20 am, Greven. Weather by CustomWeather, © 2019

Note: Actual official high and low records may vary slightly from our data, if they occured in-between our weather recording intervals... More about our weather records

Advertising

Greven Weather History for the Previous 24 Hours

Scroll right to see more
 ConditionsComfort  
Time TempWeatherWind HumidityBarometerVisibility
11:20 am
Sun, Sep 15
66 °FSunny.12 mph49%30.21 "Hg10 mi
10:50 am64 °FSunny.12 mph52%30.21 "Hg10 mi
10:20 am63 °FPassing clouds.5 mph56%30.21 "HgN/A
9:50 am59 °FPassing clouds.5 mph63%30.21 "HgN/A
9:20 am55 °FSunny.2 mph77%30.21 "Hg10 mi
8:50 am50 °FSunny.2 mph88%30.21 "Hg10 mi
8:20 am45 °FSunny.1 mph93%30.21 "Hg10 mi
7:50 am43 °FSunny.1 mph93%30.21 "Hg10 mi
7:20 am41 °FSunny.1 mph100%30.21 "Hg10 mi
6:50 am43 °FClear.2 mph93%30.21 "Hg10 mi
6:20 am43 °FClear.1 mph93%30.21 "Hg10 mi
5:50 am43 °FClear.1 mph93%30.24 "Hg10 mi
5:20 am43 °FClear.1 mph93%30.24 "Hg10 mi
4:50 am43 °FClear.1 mph93%30.24 "Hg10 mi
4:20 am43 °FClear.1 mph93%30.27 "Hg10 mi
3:50 am43 °FClear.1 mph100%30.27 "Hg10 mi
3:20 am43 °FClear.1 mph100%30.27 "Hg10 mi
2:50 am45 °FClear.No wind93%30.27 "Hg10 mi
2:20 am45 °FClear.2 mph100%30.30 "Hg10 mi
1:50 am45 °FClear.1 mph93%30.30 "Hg10 mi
1:20 am46 °FClear.1 mph93%30.30 "Hg10 mi
12:50 am46 °FClear.1 mph93%30.30 "Hg10 mi
12:20 am46 °FClear.1 mph93%30.33 "Hg10 mi
11:50 pm
Sat, Sep 14
48 °FClear.1 mph87%30.33 "Hg10 mi
11:20 pm48 °FClear.1 mph87%30.36 "Hg10 mi
10:50 pm50 °FClear.1 mph82%30.36 "Hg10 mi
10:20 pm52 °FClear.2 mph77%30.36 "Hg10 mi
9:50 pm52 °FClear.1 mph77%30.39 "Hg10 mi
9:20 pm54 °FClear.1 mph77%30.39 "Hg10 mi
8:50 pm55 °FClear.1 mph72%30.39 "Hg10 mi
8:20 pm57 °FClear.1 mph63%30.39 "Hg10 mi
7:50 pm59 °FClear.2 mph59%30.39 "Hg10 mi
7:20 pm63 °FSunny.2 mph52%30.39 "Hg10 mi
6:50 pm68 °FSunny.2 mph38%30.39 "Hg10 mi
6:20 pm68 °FSunny.3 mph38%30.42 "Hg10 mi
5:50 pm68 °FSunny.3 mph38%30.42 "Hg10 mi
5:20 pm68 °FPassing clouds.3 mph38%30.42 "HgN/A
4:50 pm68 °FPassing clouds.3 mph38%30.42 "HgN/A
4:20 pm68 °FPassing clouds.6 mph35%30.45 "HgN/A
3:50 pm66 °FPassing clouds.6 mph40%30.45 "HgN/A
3:20 pm68 °FSunny.3 mph40%30.48 "Hg10 mi
2:50 pm66 °FPassing clouds.6 mph40%30.48 "HgN/A
2:20 pm68 °FSunny.5 mph40%30.51 "Hg10 mi
1:50 pm66 °FSunny.2 mph43%30.51 "Hg10 mi
1:20 pm66 °FPassing clouds.5 mph43%30.51 "HgN/A
12:50 pm66 °FPassing clouds.3 mph46%30.54 "HgN/A
12:20 pm64 °FPassing clouds.5 mph49%30.54 "HgN/A
Weather by CustomWeather, © 2019

See weather overview